QAF182 LIRA-LOWI

Flight info

Callsign QAF182
Flight time 1h 3m
Altitude 38000
Route SOV6V SOVAN DCT AMTEL DCT NUKNI DCT DIKEM DCT EKPIS/N0356F160 M726 BRENO BREN3A
Aircraft A332/H-SDE3GHIJ2J3J5M1RVWXYZ/LB2D1

Departure

Time 2026-05-07 14:26
Airport Ciampino–G. B. Pastine International Airport (LIRA)

Arrival

Time 2026-05-07 15:29
Airport Innsbruck Airport (LOWI)
Time Latitude Longitude Altitude Speed Heading
2026-05-07 14:13 41.78935 12.59829 438 ft 0 kts 175°
2026-05-07 14:17 41.78936 12.59829 438 ft 0 kts 175°
2026-05-07 14:17 41.78946 12.59827 437 ft 0 kts 175°
2026-05-07 14:17 41.78956 12.59826 437 ft 0 kts 175°
2026-05-07 14:17 41.78966 12.59824 436 ft 0 kts 168°
2026-05-07 14:18 41.78975 12.59820 435 ft 0 kts 151°
2026-05-07 14:18 41.78983 12.59812 435 ft 0 kts 130°
2026-05-07 14:18 41.78988 12.59800 435 ft 0 kts 107°
2026-05-07 14:18 41.78988 12.59786 435 ft 0 kts 77°
2026-05-07 14:19 41.78988 12.59783 435 ft 0 kts 70°
2026-05-07 14:20 41.78996 12.59814 435 ft 10 kts 71°
2026-05-07 14:20 41.79039 12.59893 436 ft 11 kts 358°
2026-05-07 14:20 41.79125 12.59840 434 ft 15 kts 333°
2026-05-07 14:21 41.79233 12.59766 430 ft 19 kts 333°
2026-05-07 14:21 41.79364 12.59677 426 ft 22 kts 333°
2026-05-07 14:21 41.79516 12.59573 418 ft 26 kts 333°
2026-05-07 14:21 41.79690 12.59451 411 ft 30 kts 333°
2026-05-07 14:22 41.79892 12.59313 402 ft 33 kts 333°
2026-05-07 14:22 41.80064 12.59193 392 ft 29 kts 333°
2026-05-07 14:22 41.80227 12.59080 385 ft 22 kts 333°
2026-05-07 14:22 41.80375 12.58979 380 ft 24 kts 333°
2026-05-07 14:23 41.80491 12.58898 375 ft 18 kts 333°
2026-05-07 14:23 41.80608 12.58819 371 ft 12 kts 333°
2026-05-07 14:23 41.80686 12.58767 369 ft 13 kts 335°
2026-05-07 14:23 41.80763 12.58820 368 ft 14 kts 58°
2026-05-07 14:24 41.80765 12.58909 369 ft 10 kts 149°
2026-05-07 14:24 41.80750 12.58920 370 ft 0 kts 152°
2026-05-07 14:25 41.80720 12.58942 370 ft 24 kts 152°
2026-05-07 14:26 41.80274 12.59252 387 ft 117 kts 153°
2026-05-07 14:26 41.79357 12.59877 679 ft 166 kts 154°
2026-05-07 14:26 41.78297 12.60494 1431 ft 180 kts 169°
2026-05-07 14:26 41.76993 12.60292 2212 ft 202 kts 205°
2026-05-07 14:27 41.75910 12.59103 2747 ft 212 kts 238°
2026-05-07 14:27 41.75396 12.57236 3336 ft 221 kts 258°
2026-05-07 14:27 41.75034 12.55246 4125 ft 223 kts 257°
2026-05-07 14:27 41.74689 12.53242 4916 ft 224 kts 263°
2026-05-07 14:28 41.74719 12.51167 5662 ft 227 kts 278°
2026-05-07 14:28 41.75009 12.49125 6457 ft 227 kts 282°
2026-05-07 14:28 41.75391 12.47074 7208 ft 230 kts 284°
2026-05-07 14:28 41.75820 12.44985 7879 ft 236 kts 285°
2026-05-07 14:29 41.76262 12.42895 8636 ft 238 kts 285°
2026-05-07 14:29 41.76717 12.40762 9385 ft 241 kts 285°
2026-05-07 14:29 41.77196 12.38535 9866 ft 257 kts 285°
2026-05-07 14:29 41.77707 12.36172 10334 ft 274 kts 285°
2026-05-07 14:30 41.78257 12.33616 10776 ft 293 kts 285°
2026-05-07 14:30 41.78840 12.30916 11206 ft 311 kts 284°
2026-05-07 14:30 41.79451 12.28082 11659 ft 328 kts 284°
2026-05-07 14:30 41.80462 12.25225 11998 ft 350 kts 304°
2026-05-07 14:31 41.82255 12.22913 12365 ft 371 kts 324°
2026-05-07 14:31 41.84625 12.21557 13161 ft 377 kts 345°
2026-05-07 14:31 41.87260 12.21253 13935 ft 381 kts 354°
2026-05-07 14:31 41.89881 12.20604 14484 ft 386 kts 343°
2026-05-07 14:32 41.92495 12.19769 15243 ft 389 kts 343°
2026-05-07 14:32 41.95159 12.18887 15912 ft 394 kts 343°
2026-05-07 14:32 41.97826 12.18008 16596 ft 398 kts 343°
2026-05-07 14:32 42.00520 12.17118 17275 ft 402 kts 342°
2026-05-07 14:33 42.03233 12.16223 17948 ft 405 kts 342°
2026-05-07 14:33 42.05973 12.15311 18577 ft 408 kts 342°
2026-05-07 14:33 42.08725 12.14401 19187 ft 412 kts 341°
2026-05-07 14:33 42.11537 12.13467 19787 ft 416 kts 341°
2026-05-07 14:34 42.14351 12.12536 20424 ft 418 kts 341°
2026-05-07 14:34 42.17174 12.11597 21036 ft 419 kts 341°
2026-05-07 14:34 42.20003 12.10658 21558 ft 423 kts 341°
2026-05-07 14:34 42.22871 12.09693 21940 ft 430 kts 341°
2026-05-07 14:35 42.25771 12.08724 22532 ft 431 kts 340°
2026-05-07 14:35 42.28679 12.07747 23132 ft 431 kts 340°
2026-05-07 14:35 42.31604 12.06761 23477 ft 438 kts 340°
2026-05-07 14:35 42.34581 12.05762 23923 ft 442 kts 340°
2026-05-07 14:36 42.37602 12.04746 24526 ft 442 kts 340°
2026-05-07 14:36 42.40595 12.03735 24958 ft 445 kts 340°
2026-05-07 14:36 42.43576 12.02731 25393 ft 447 kts 340°
2026-05-07 14:36 42.46615 12.01699 25711 ft 451 kts 340°
2026-05-07 14:37 42.49690 12.00661 26016 ft 456 kts 340°
2026-05-07 14:37 42.55833 11.98580 26849 ft 458 kts 339°
2026-05-07 14:37 42.58911 11.97539 27257 ft 459 kts 339°
2026-05-07 14:38 42.62022 11.96482 27567 ft 463 kts 339°
2026-05-07 14:38 42.65159 11.95419 27771 ft 470 kts 339°
2026-05-07 14:38 42.68361 11.94388 27884 ft 480 kts 341°
2026-05-07 14:38 42.71603 11.93277 28231 ft 478 kts 338°
2026-05-07 14:39 42.74771 11.92168 29104 ft 470 kts 339°
2026-05-07 14:39 42.77911 11.91079 29620 ft 467 kts 339°
2026-05-07 14:39 42.81094 11.89987 29954 ft 470 kts 339°
2026-05-07 14:39 42.84173 11.88631 30091 ft 464 kts 328°
2026-05-07 14:40 42.87039 11.86572 30390 ft 461 kts 325°
2026-05-07 14:40 42.89865 11.84513 31101 ft 453 kts 324°
2026-05-07 14:40 42.92612 11.82505 31660 ft 450 kts 324°
2026-05-07 14:40 42.95383 11.80474 31926 ft 452 kts 324°
2026-05-07 14:41 42.98164 11.78436 32268 ft 452 kts 325°
2026-05-07 14:41 43.00940 11.76402 32649 ft 451 kts 324°
2026-05-07 14:41 43.03681 11.74390 33033 ft 450 kts 324°
2026-05-07 14:41 43.06446 11.72358 33425 ft 449 kts 324°
2026-05-07 14:42 43.09201 11.70331 33733 ft 449 kts 324°
2026-05-07 14:42 43.11934 11.68320 34101 ft 447 kts 324°
2026-05-07 14:42 43.14691 11.66288 34462 ft 445 kts 324°
2026-05-07 14:42 43.17396 11.64292 34747 ft 444 kts 324°
2026-05-07 14:43 43.20124 11.62282 34967 ft 446 kts 325°
2026-05-07 14:43 43.23058 11.60825 35143 ft 463 kts 340°
2026-05-07 14:43 43.26305 11.60412 35419 ft 473 kts 350°
2026-05-07 14:43 43.29619 11.60173 35779 ft 469 kts 349°
2026-05-07 14:44 43.32840 11.59905 36065 ft 469 kts 349°
2026-05-07 14:44 43.36111 11.59622 36319 ft 469 kts 349°
2026-05-07 14:44 43.39376 11.59335 36613 ft 469 kts 349°
2026-05-07 14:44 43.42633 11.59048 36862 ft 469 kts 349°
2026-05-07 14:45 43.45890 11.58760 37087 ft 470 kts 349°
2026-05-07 14:45 43.49133 11.58474 37377 ft 469 kts 349°
2026-05-07 14:45 43.52378 11.58186 37570 ft 469 kts 349°
2026-05-07 14:45 43.55609 11.57899 37755 ft 470 kts 349°
2026-05-07 14:46 43.58900 11.57607 37968 ft 470 kts 349°
2026-05-07 14:46 43.62157 11.57316 37950 ft 475 kts 349°
2026-05-07 14:46 43.68730 11.56734 37962 ft 476 kts 349°
2026-05-07 14:47 43.75331 11.56145 37966 ft 473 kts 349°
2026-05-07 14:47 43.81898 11.55584 37956 ft 475 kts 351°
2026-05-07 14:48 43.88450 11.55146 37984 ft 474 kts 351°
2026-05-07 14:48 43.95028 11.54699 37964 ft 474 kts 351°
2026-05-07 14:49 44.01612 11.54250 37988 ft 475 kts 351°
2026-05-07 14:49 44.08205 11.53801 37973 ft 474 kts 351°
2026-05-07 14:50 44.14800 11.53347 37930 ft 475 kts 351°
2026-05-07 14:50 44.21417 11.52892 37953 ft 478 kts 351°
2026-05-07 14:51 44.28033 11.52439 37954 ft 477 kts 351°
2026-05-07 14:51 44.34656 11.51981 37938 ft 477 kts 351°
2026-05-07 14:52 44.41266 11.51525 37943 ft 477 kts 351°
2026-05-07 14:52 44.47877 11.51067 37936 ft 477 kts 351°
2026-05-07 14:53 44.54486 11.50607 37926 ft 479 kts 351°
2026-05-07 14:53 44.61147 11.50145 37929 ft 479 kts 351°
2026-05-07 14:54 44.67774 11.49684 37933 ft 479 kts 351°
2026-05-07 14:54 44.74464 11.49216 37918 ft 480 kts 351°
2026-05-07 14:55 44.81105 11.48751 37924 ft 481 kts 351°
2026-05-07 14:55 44.87777 11.48282 37923 ft 481 kts 352°
2026-05-07 14:56 44.94468 11.47812 37919 ft 481 kts 352°
2026-05-07 14:56 45.01108 11.47342 37922 ft 480 kts 352°
2026-05-07 14:57 45.07771 11.46872 37939 ft 480 kts 352°
2026-05-07 14:57 45.14467 11.46397 37923 ft 481 kts 352°
2026-05-07 14:58 45.21158 11.45922 37937 ft 481 kts 352°
2026-05-07 14:58 45.27837 11.45447 37930 ft 480 kts 352°
2026-05-07 14:59 45.34539 11.44969 37959 ft 480 kts 352°
2026-05-07 14:59 45.41226 11.44489 37942 ft 479 kts 352°
2026-05-07 15:00 45.47877 11.44013 37921 ft 478 kts 352°
2026-05-07 15:00 45.54507 11.43536 37949 ft 479 kts 352°
2026-05-07 15:01 45.61159 11.43057 37931 ft 478 kts 352°
2026-05-07 15:01 45.67762 11.42580 37937 ft 476 kts 352°
2026-05-07 15:02 45.74344 11.42104 37961 ft 479 kts 352°
2026-05-07 15:02 45.80986 11.41622 37976 ft 479 kts 352°
2026-05-07 15:03 45.87634 11.41138 37980 ft 478 kts 352°
2026-05-07 15:03 45.94268 11.40655 37966 ft 479 kts 352°
2026-05-07 15:04 46.00935 11.40169 37964 ft 479 kts 352°
2026-05-07 15:04 46.07570 11.39736 37973 ft 479 kts 353°
2026-05-07 15:05 46.14270 11.39347 37980 ft 478 kts 353°
2026-05-07 15:05 46.20878 11.38961 37998 ft 477 kts 353°
2026-05-07 15:06 46.27541 11.38574 37304 ft 484 kts 353°
2026-05-07 15:06 46.30880 11.38381 36666 ft 484 kts 353°
2026-05-07 15:06 46.34224 11.38185 36036 ft 483 kts 353°
2026-05-07 15:07 46.37582 11.37988 35376 ft 482 kts 353°
2026-05-07 15:07 46.40931 11.37791 34739 ft 481 kts 353°
2026-05-07 15:07 46.44293 11.37594 34104 ft 480 kts 352°
2026-05-07 15:07 46.47639 11.37395 33511 ft 481 kts 353°
2026-05-07 15:08 46.51006 11.37192 32801 ft 484 kts 353°
2026-05-07 15:08 46.54359 11.36994 32011 ft 486 kts 354°
2026-05-07 15:08 46.57697 11.36797 31241 ft 485 kts 354°
2026-05-07 15:08 46.61081 11.36599 30625 ft 480 kts 355°
2026-05-07 15:09 46.64393 11.36404 29980 ft 475 kts 355°
2026-05-07 15:09 46.67652 11.36211 29420 ft 469 kts 355°
2026-05-07 15:09 46.70860 11.36021 28788 ft 465 kts 355°
2026-05-07 15:09 46.74094 11.35830 28144 ft 462 kts 356°
2026-05-07 15:10 46.77284 11.35640 27458 ft 454 kts 356°
2026-05-07 15:10 46.80344 11.35721 26790 ft 428 kts
2026-05-07 15:10 46.83190 11.36043 26394 ft 402 kts
2026-05-07 15:10 46.85962 11.36346 26024 ft 398 kts
2026-05-07 15:11 46.88714 11.36646 25567 ft 395 kts
2026-05-07 15:11 46.91428 11.36945 25094 ft 391 kts
2026-05-07 15:11 46.94138 11.36888 24505 ft 378 kts 348°
2026-05-07 15:11 46.96547 11.35569 24152 ft 377 kts 328°
2026-05-07 15:12 46.98630 11.33180 24012 ft 372 kts 316°
2026-05-07 15:12 47.00131 11.30257 23831 ft 351 kts 295°
2026-05-07 15:12 47.00934 11.26981 23483 ft 342 kts 289°
2026-05-07 15:12 47.01771 11.23730 23068 ft 339 kts 291°
2026-05-07 15:13 47.02626 11.20517 22629 ft 337 kts 291°
2026-05-07 15:13 47.03478 11.17334 22195 ft 335 kts 291°
2026-05-07 15:13 47.04320 11.14191 21770 ft 332 kts 291°
2026-05-07 15:13 47.05154 11.11073 21360 ft 329 kts 291°
2026-05-07 15:14 47.05988 11.07953 20932 ft 327 kts 291°
2026-05-07 15:14 47.06810 11.04873 20510 ft 325 kts 291°
2026-05-07 15:14 47.07632 11.01791 20085 ft 323 kts 291°
2026-05-07 15:14 47.08437 10.98767 19654 ft 322 kts 291°
2026-05-07 15:15 47.09246 10.95724 19280 ft 319 kts 291°
2026-05-07 15:15 47.10019 10.92812 18910 ft 316 kts 291°
2026-05-07 15:15 47.10841 10.89711 18482 ft 314 kts 291°
2026-05-07 15:15 47.11625 10.86751 18092 ft 312 kts 291°
2026-05-07 15:16 47.12403 10.83813 17741 ft 309 kts 291°
2026-05-07 15:16 47.13181 10.80864 17323 ft 309 kts 291°
2026-05-07 15:16 47.13942 10.77984 17131 ft 294 kts 291°
2026-05-07 15:16 47.14662 10.75249 17018 ft 277 kts 291°
2026-05-07 15:17 47.15341 10.72670 16885 ft 270 kts 291°
2026-05-07 15:17 47.16021 10.70082 16607 ft 270 kts 291°
2026-05-07 15:17 47.16722 10.67528 16319 ft 269 kts 297°
2026-05-07 15:17 47.17938 10.65451 15973 ft 272 kts 324°
2026-05-07 15:18 47.19605 10.64133 15685 ft 271 kts 331°
2026-05-07 15:18 47.21248 10.62853 15434 ft 270 kts 330°
2026-05-07 15:18 47.22911 10.61547 15162 ft 269 kts 330°
2026-05-07 15:18 47.24634 10.60520 14837 ft 272 kts 349°
2026-05-07 15:19 47.26517 10.60707 14524 ft 275 kts 18°
2026-05-07 15:19 47.28198 10.62062 14179 ft 277 kts 28°
2026-05-07 15:19 47.29933 10.63244 13488 ft 281 kts 36°
2026-05-07 15:19 47.31057 10.65447 13310 ft 266 kts 71°
2026-05-07 15:20 47.31396 10.68186 12511 ft 277 kts 88°
2026-05-07 15:20 47.31425 10.71013 11783 ft 281 kts 89°
2026-05-07 15:20 47.31402 10.73846 11065 ft 279 kts 90°
2026-05-07 15:20 47.31371 10.76683 10324 ft 274 kts 90°
2026-05-07 15:21 47.31343 10.79420 9643 ft 266 kts 87°
2026-05-07 15:21 47.31329 10.82102 8970 ft 259 kts 90°
2026-05-07 15:21 47.31280 10.84724 8317 ft 253 kts 90°
2026-05-07 15:21 47.31240 10.87250 7790 ft 245 kts 90°
2026-05-07 15:22 47.31202 10.89719 7334 ft 236 kts 90°
2026-05-07 15:22 47.31166 10.92029 6985 ft 212 kts 89°
2026-05-07 15:22 47.31135 10.94043 7058 ft 189 kts 89°
2026-05-07 15:22 47.31107 10.95918 7040 ft 182 kts 89°
2026-05-07 15:23 47.31081 10.97669 6923 ft 165 kts 89°
2026-05-07 15:23 47.31057 10.99336 6831 ft 157 kts 88°
2026-05-07 15:23 47.31034 11.00923 6782 ft 156 kts 88°
2026-05-07 15:23 47.31010 11.02526 6722 ft 156 kts 88°
2026-05-07 15:24 47.30986 11.04129 6671 ft 156 kts 88°
2026-05-07 15:24 47.30962 11.05723 6617 ft 157 kts 88°
2026-05-07 15:24 47.30851 11.07325 6430 ft 159 kts 99°
2026-05-07 15:24 47.30500 11.08861 6228 ft 158 kts 112°
2026-05-07 15:25 47.30015 11.10335 6002 ft 159 kts 114°
2026-05-07 15:25 47.29538 11.11774 5748 ft 158 kts 114°
2026-05-07 15:25 47.29060 11.13232 5484 ft 158 kts 114°
2026-05-07 15:25 47.28579 11.14692 5219 ft 157 kts 114°
2026-05-07 15:26 47.28103 11.16138 4951 ft 155 kts 114°
2026-05-07 15:26 47.27637 11.17554 4689 ft 154 kts 114°
2026-05-07 15:26 47.27169 11.18973 4428 ft 152 kts 114°
2026-05-07 15:26 47.26709 11.20364 4177 ft 151 kts 113°
2026-05-07 15:27 47.26252 11.21751 3925 ft 150 kts 114°
2026-05-07 15:27 47.25798 11.23125 3671 ft 149 kts 114°
2026-05-07 15:27 47.25361 11.24483 3407 ft 147 kts 111°
2026-05-07 15:27 47.25161 11.25940 3127 ft 147 kts 88°
2026-05-07 15:28 47.25213 11.27424 2815 ft 142 kts 81°
2026-05-07 15:28 47.25388 11.28830 2545 ft 138 kts 77°
2026-05-07 15:28 47.25557 11.30208 2407 ft 138 kts 80°
2026-05-07 15:28 47.25713 11.31594 2233 ft 138 kts 79°
2026-05-07 15:29 47.25859 11.32991 1986 ft 136 kts 76°
2026-05-07 15:29 47.26008 11.34245 1930 ft 94 kts 81°
2026-05-07 15:29 47.26064 11.34757 1930 ft 10 kts 80°
2026-05-07 15:29 47.26082 11.34946 1930 ft 27 kts 82°
2026-05-07 15:30 47.26104 11.35172 1930 ft 15 kts 81°
2026-05-07 15:30 47.26047 11.35261 1930 ft 14 kts 171°
2026-05-07 15:30 47.25953 11.35284 1930 ft 10 kts 169°
2026-05-07 15:30 47.25900 11.35257 1930 ft 8 kts 249°
2026-05-07 15:31 47.25890 11.35162 1930 ft 10 kts 261°
2026-05-07 15:31 47.25879 11.35050 1930 ft 11 kts 260°
2026-05-07 15:31 47.25867 11.34944 1930 ft 4 kts 261°
2026-05-07 15:31 47.25850 11.34923 1930 ft 4 kts 175°
2026-05-07 15:32 47.25817 11.34930 1930 ft 3 kts 171°
2026-05-07 15:32 47.25811 11.34931 1930 ft 0 kts 171°